• In Czech Republic
  • List of Countries
  • For 7 days
  • Water Temperature
  • Satellite Maps
  • Weather Map
  • Weather Widgets
  • user-avatar
    Login

    Hourly Weather Alzira

    Today, 23 September, Sunday

    Time Temperature Precipitation Wind Pressure Humidity
    00:00 +28°C° 0 mm 1 mps 763 mmHg 67%
    01:00 +28°C° 0 mm 1 mps 763 mmHg 66%
    02:00 +28°C° 0 mm 1 mps 763 mmHg 65%
    03:00 +28°C° 0 mm 1 mps 763 mmHg 63%
    04:00 +28°C° 0 mm 1 mps 763 mmHg 63%
    05:00 +27°C° 0 mm 1 mps 763 mmHg 62%
    06:00 +27°C° 0 mm 1 mps 763 mmHg 61%
    07:00 +29°C° 0 mm 1 mps 763 mmHg 54%
    08:00 +31°C° 0 mm 1 mps 763 mmHg 46%
    09:00 +33°C° 0 mm 1 mps 763 mmHg 38%
    10:00 +34°C° 0 mm 1 mps 763 mmHg 35%
    11:00 +36°C° 0 mm 2 mps 763 mmHg 32%
    12:00 +37°C° 0 mm 2 mps 763 mmHg 29%
    13:00 +38°C° 0 mm 3 mps 763 mmHg 29%
    14:00 +38°C° 0 mm 3 mps 762 mmHg 29%
    15:00 +38°C° 0 mm 4 mps 762 mmHg 29%
    16:00 +37°C° 0 mm 4 mps 762 mmHg 33%
    17:00 +35°C° 0 mm 4 mps 761 mmHg 38%
    18:00 +34°C° 0 mm 4 mps 761 mmHg 43%
    19:00 +33°C° 0 mm 3 mps 762 mmHg 48%
    20:00 +31°C° 0 mm 3 mps 762 mmHg 53%
    21:00 +30°C° 0 mm 2 mps 763 mmHg 57%
    22:00 +30°C° 0 mm 2 mps 763 mmHg 59%
    23:00 +29°C° 0 mm 1 mps 763 mmHg 61%

    Tomorrow, 24 September, Monday

    Time Temperature Precipitation Wind Pressure Humidity
    00:00 +29°C° 0 mm 1 mps 763 mmHg 63%
    01:00 +28°C° 0 mm 1 mps 762 mmHg 63%
    02:00 +28°C° 0 mm 1 mps 762 mmHg 62%
    03:00 +28°C° 0 mm 1 mps 762 mmHg 61%
    04:00 +28°C° 0 mm 1 mps 762 mmHg 61%
    05:00 +27°C° 0 mm 1 mps 762 mmHg 61%
    06:00 +27°C° 0 mm 1 mps 762 mmHg 61%
    07:00 +28°C° 0 mm 2 mps 763 mmHg 56%
    08:00 +30°C° 0 mm 2 mps 763 mmHg 51%
    09:00 +33°C° 0 mm 3 mps 763 mmHg 45%
    10:00 +33°C° 0 mm 3 mps 763 mmHg 44%
    11:00 +34°C° 0 mm 4 mps 763 mmHg 43%
    12:00 +35°C° 0 mm 4 mps 763 mmHg 42%
    13:00 +35°C° 0 mm 4 mps 762 mmHg 42%
    14:00 +35°C° 0 mm 4 mps 762 mmHg 42%
    15:00 +36°C° 0 mm 4 mps 762 mmHg 42%
    16:00 +34°C° 0 mm 4 mps 761 mmHg 48%
    17:00 +33°C° 0 mm 4 mps 761 mmHg 54%
    18:00 +30°C° 0 mm 4 mps 761 mmHg 60%
    19:00 +30°C° 0 mm 4 mps 762 mmHg 64%
    20:00 +29°C° 0 mm 4 mps 762 mmHg 68%
    21:00 +28°C° 0 mm 3 mps 763 mmHg 72%
    22:00 +27°C° 0 mm 3 mps 763 mmHg 75%
    23:00 +27°C° 0 mm 2 mps 763 mmHg 77%

    Day after tomorrow, 25 September, Tuesday

    Time Temperature Precipitation Wind Pressure Humidity
    00:00 +27°C° 0 mm 2 mps 763 mmHg 80%
    01:00 +26°C° 0.1 mm 2 mps 763 mmHg 82%
    02:00 +26°C° 0.1 mm 2 mps 763 mmHg 84%
    03:00 +25°C° 0.1 mm 2 mps 763 mmHg 86%
    04:00 +25°C° 0.2 mm 3 mps 763 mmHg 88%
    05:00 +25°C° 0.2 mm 3 mps 763 mmHg 91%
    06:00 +25°C° 0.2 mm 4 mps 763 mmHg 93%
    07:00 +25°C° 0.3 mm 4 mps 763 mmHg 90%
    08:00 +26°C° 0.3 mm 4 mps 764 mmHg 86%
    09:00 +26°C° 0.3 mm 5 mps 764 mmHg 83%
    10:00 +26°C° 0.2 mm 5 mps 764 mmHg 82%
    11:00 +27°C° 0.2 mm 5 mps 764 mmHg 82%
    12:00 +27°C° 0.2 mm 5 mps 764 mmHg 81%
    13:00 +26°C° 0.1 mm 5 mps 764 mmHg 82%
    14:00 +26°C° 0.1 mm 6 mps 763 mmHg 83%
    15:00 +26°C° 0.1 mm 6 mps 763 mmHg 84%
    16:00 +24°C° 0 mm 6 mps 763 mmHg 86%
    17:00 +24°C° 0 mm 6 mps 764 mmHg 87%
    18:00 +23°C° 0 mm 6 mps 764 mmHg 89%
    19:00 +23°C° 0.1 mm 6 mps 764 mmHg 89%
    20:00 +23°C° 0.1 mm 5 mps 765 mmHg 90%
    21:00 +22°C° 0.1 mm 5 mps 765 mmHg 90%
    22:00 +22°C° 0.3 mm 5 mps 765 mmHg 91%
    23:00 +22°C° 0.3 mm 5 mps 765 mmHg 91%

    26 September, Wednesday

    Time Temperature Precipitation Wind Pressure Humidity
    00:00 +22°C° 0.3 mm 5 mps 765 mmHg 91%
    01:00 +22°C° 0.8 mm 5 mps 765 mmHg 92%
    02:00 +22°C° 0.8 mm 5 mps 764 mmHg 92%
    03:00 +22°C° 0.8 mm 5 mps 764 mmHg 93%
    04:00 +22°C° 0.8 mm 6 mps 764 mmHg 93%
    05:00 +22°C° 0.8 mm 6 mps 765 mmHg 93%
    06:00 +22°C° 0.8 mm 6 mps 765 mmHg 93%
    07:00 +22°C° 0.5 mm 6 mps 765 mmHg 90%
    08:00 +23°C° 0.5 mm 6 mps 765 mmHg 88%
    09:00 +23°C° 0.5 mm 6 mps 766 mmHg 86%
    10:00 +24°C° 0.3 mm 6 mps 765 mmHg 81%
    11:00 +26°C° 0.3 mm 6 mps 765 mmHg 75%
    12:00 +27°C° 0.3 mm 6 mps 765 mmHg 70%
    13:00 +27°C° 0.2 mm 6 mps 765 mmHg 70%
    14:00 +27°C° 0.2 mm 6 mps 765 mmHg 70%
    15:00 +27°C° 0.2 mm 7 mps 764 mmHg 69%
    16:00 +26°C° 0.3 mm 6 mps 765 mmHg 74%
    17:00 +26°C° 0.3 mm 6 mps 765 mmHg 79%
    18:00 +24°C° 0.3 mm 6 mps 765 mmHg 84%
    19:00 +24°C° 0.8 mm 6 mps 766 mmHg 86%
    20:00 +23°C° 0.8 mm 5 mps 766 mmHg 88%
    21:00 +23°C° 0.8 mm 5 mps 766 mmHg 90%
    22:00 +23°C° 0.9 mm 5 mps 766 mmHg 91%
    23:00 +23°C° 0.9 mm 5 mps 766 mmHg 91%

    27 September, Thursday

    Time Temperature Precipitation Wind Pressure Humidity
    00:00 +23°C° 0.9 mm 5 mps 766 mmHg 91%
    01:00 +23°C° 0.9 mm 5 mps 765 mmHg 92%
    02:00 +23°C° 0.9 mm 5 mps 765 mmHg 92%
    03:00 +23°C° 0.9 mm 5 mps 765 mmHg 93%
    04:00 +23°C° 1.3 mm 6 mps 765 mmHg 93%
    05:00 +22°C° 1.3 mm 6 mps 765 mmHg 93%
    06:00 +22°C° 1.3 mm 6 mps 765 mmHg 94%
    07:00 +23°C° 1.2 mm 6 mps 765 mmHg 92%
    08:00 +23°C° 1.2 mm 6 mps 765 mmHg 90%
    09:00 +23°C° 1.2 mm 6 mps 766 mmHg 89%
    10:00 +25°C° 0.7 mm 5 mps 765 mmHg 86%
    11:00 +25°C° 0.7 mm 5 mps 765 mmHg 84%
    12:00 +26°C° 0.7 mm 5 mps 765 mmHg 82%
    13:00 +26°C° 0.5 mm 5 mps 764 mmHg 80%
    14:00 +26°C° 0.5 mm 5 mps 764 mmHg 79%
    15:00 +26°C° 0.5 mm 5 mps 763 mmHg 78%
    16:00 +26°C° 0.2 mm 5 mps 763 mmHg 81%
    17:00 +25°C° 0.2 mm 5 mps 763 mmHg 84%
    18:00 +25°C° 0.2 mm 5 mps 763 mmHg 88%
    19:00 +25°C° 0.5 mm 4 mps 764 mmHg 90%
    20:00 +23°C° 0.5 mm 4 mps 764 mmHg 92%
    21:00 +23°C° 0.5 mm 4 mps 764 mmHg 93%
    22:00 +23°C° 0.3 mm 4 mps 764 mmHg 94%
    23:00 +22°C° 0.3 mm 4 mps 763 mmHg 94%

    28 September, Friday

    Time Temperature Precipitation Wind Pressure Humidity
    00:00 +22°C° 0.3 mm 4 mps 763 mmHg 94%
    01:00 +22°C° 0 mm 3 mps 762 mmHg 94%
    02:00 +22°C° 0 mm 3 mps 762 mmHg 94%
    03:00 +22°C° 0 mm 3 mps 762 mmHg 94%
    04:00 +21°C° 0 mm 3 mps 762 mmHg 94%
    05:00 +21°C° 0 mm 3 mps 762 mmHg 94%
    06:00 +21°C° 0 mm 3 mps 761 mmHg 93%
    07:00 +24°C° 0.1 mm 3 mps 762 mmHg 86%
    08:00 +25°C° 0.1 mm 3 mps 762 mmHg 78%
    09:00 +27°C° 0.1 mm 3 mps 762 mmHg 70%
    10:00 +28°C° 0 mm 3 mps 761 mmHg 64%
    11:00 +29°C° 0 mm 3 mps 761 mmHg 58%
    12:00 +30°C° 0 mm 3 mps 761 mmHg 52%
    13:00 +31°C° 0 mm 3 mps 760 mmHg 51%
    14:00 +31°C° 0 mm 3 mps 760 mmHg 50%
    15:00 +31°C° 0 mm 3 mps 759 mmHg 49%
    16:00 +30°C° 0.1 mm 3 mps 759 mmHg 57%
    17:00 +29°C° 0.1 mm 3 mps 759 mmHg 65%
    18:00 +27°C° 0.1 mm 2 mps 760 mmHg 73%
    19:00 +27°C° 0.2 mm 2 mps 760 mmHg 78%
    20:00 +26°C° 0.2 mm 1 mps 760 mmHg 82%
    21:00 +25°C° 0.2 mm 1 mps 760 mmHg 87%
    22:00 +25°C° 0 mm 1 mps 760 mmHg 88%
    23:00 +25°C° 0 mm 1 mps 760 mmHg 90%
    Show more